Time,TemperatureF,DewpointF,PressureIn,WindDirection,WindDirectionDegrees,WindSpeedMPH,WindSpeedGustMPH,Humidity,HourlyPrecipIn,Conditions,Clouds,dailyrainin,SoftwareType,DateUTC
2013-01-27 00:09:00,23.4,18.0,30.44,NW,309,0.0,0.0,81,0.00,,,0.00,weatherlink.com 1.10,2013-01-27 05:09:00,
2013-01-27 00:25:00,23.5,18.0,30.44,NW,309,0.0,0.0,80,0.00,,,0.00,weatherlink.com 1.10,2013-01-27 05:25:00,
2013-01-27 00:40:00,23.3,18.0,30.45,NW,309,0.0,0.0,81,0.00,,,0.00,weatherlink.com 1.10,2013-01-27 05:40:00,
2013-01-27 00:55:00,22.7,18.0,30.45,NW,309,0.0,0.0,81,0.00,,,0.00,weatherlink.com 1.10,2013-01-27 05:55:00,
2013-01-27 01:10:00,22.4,18.0,30.46,NW,309,0.0,0.0,82,0.00,,,0.00,weatherlink.com 1.10,2013-01-27 06:10:00,
2013-01-27 01:25:00,22.2,18.0,30.46,NW,309,0.0,0.0,82,0.00,,,0.00,weatherlink.com 1.10,2013-01-27 06:25:00,
2013-01-27 01:40:00,22.2,18.0,30.47,NW,309,0.0,0.0,82,0.00,,,0.00,weatherlink.com 1.10,2013-01-27 06:40:00,
2013-01-27 01:55:00,22.5,19.0,30.47,NW,309,0.0,0.0,85,0.00,,,0.00,weatherlink.com 1.10,2013-01-27 06:55:00,
2013-01-27 02:25:00,22.2,18.0,30.48,NW,309,0.0,0.0,84,0.00,,,0.00,weatherlink.com 1.10,2013-01-27 07:25:00,
2013-01-27 02:42:00,21.8,18.0,30.48,NW,309,0.0,0.0,84,0.00,,,0.00,weatherlink.com 1.10,2013-01-27 07:42:00,
2013-01-27 02:56:00,21.3,17.0,30.48,NW,309,0.0,0.0,84,0.00,,,0.00,weatherlink.com 1.10,2013-01-27 07:56:00,
2013-01-27 03:11:00,20.8,17.0,30.48,NW,309,0.0,0.0,85,0.00,,,0.00,weatherlink.com 1.10,2013-01-27 08:11:00,
2013-01-27 03:26:00,20.7,17.0,30.48,NW,309,0.0,0.0,86,0.00,,,0.00,weatherlink.com 1.10,2013-01-27 08:26:00,
2013-01-27 03:41:00,20.8,18.0,30.48,NW,309,0.0,0.0,87,0.00,,,0.00,weatherlink.com 1.10,2013-01-27 08:41:00,
2013-01-27 03:56:00,21.1,18.0,30.48,NW,309,0.0,0.0,88,0.00,,,0.00,weatherlink.com 1.10,2013-01-27 08:56:00,
2013-01-27 04:11:00,21.3,18.0,30.48,NW,309,0.0,0.0,88,0.00,,,0.00,weatherlink.com 1.10,2013-01-27 09:11:00,
2013-01-27 04:26:00,21.7,19.0,30.49,NW,309,0.0,0.0,89,0.00,,,0.00,weatherlink.com 1.10,2013-01-27 09:26:00,
2013-01-27 04:41:00,22.0,19.0,30.49,NW,309,0.0,0.0,89,0.00,,,0.00,weatherlink.com 1.10,2013-01-27 09:41:00,
2013-01-27 04:56:00,22.5,20.0,30.49,NW,309,0.0,0.0,89,0.00,,,0.00,weatherlink.com 1.10,2013-01-27 09:56:00,
2013-01-27 05:11:00,22.7,20.0,30.49,NW,309,0.0,0.0,89,0.00,,,0.00,weatherlink.com 1.10,2013-01-27 10:11:00,
2013-01-27 05:27:00,22.6,20.0,30.50,NW,309,0.0,0.0,88,0.00,,,0.00,weatherlink.com 1.10,2013-01-27 10:27:00,
2013-01-27 05:42:00,22.6,19.0,30.50,NW,309,0.0,0.0,86,0.00,,,0.00,weatherlink.com 1.10,2013-01-27 10:42:00,
2013-01-27 05:57:00,22.5,18.0,30.50,NW,309,0.0,0.0,84,0.00,,,0.00,weatherlink.com 1.10,2013-01-27 10:57:00,
2013-01-27 06:12:00,22.7,19.0,30.51,NW,309,0.0,0.0,87,0.00,,,0.00,weatherlink.com 1.10,2013-01-27 11:12:00,
2013-01-27 06:27:00,22.5,19.0,30.52,NW,309,0.0,0.0,85,0.00,,,0.00,weatherlink.com 1.10,2013-01-27 11:27:00,
2013-01-27 06:42:00,22.4,19.0,30.52,NW,309,0.0,0.0,86,0.00,,,0.00,weatherlink.com 1.10,2013-01-27 11:42:00,
2013-01-27 06:57:00,22.6,19.0,30.52,NW,309,0.0,0.0,87,0.00,,,0.00,weatherlink.com 1.10,2013-01-27 11:57:00,
2013-01-27 07:12:00,22.8,19.0,30.54,NW,309,0.0,0.0,86,0.00,,,0.00,weatherlink.com 1.10,2013-01-27 12:12:00,
2013-01-27 07:27:00,23.0,19.0,30.54,NW,309,0.0,0.0,86,0.00,,,0.00,weatherlink.com 1.10,2013-01-27 12:27:00,
2013-01-27 07:43:00,23.1,20.0,30.55,NW,309,0.0,0.0,87,0.00,,,0.00,weatherlink.com 1.10,2013-01-27 12:43:00,
2013-01-27 07:58:00,23.1,20.0,30.55,NW,309,0.0,0.0,87,0.00,,,0.00,weatherlink.com 1.10,2013-01-27 12:58:00,
2013-01-27 08:13:00,22.9,19.0,30.56,NW,309,0.0,0.0,86,0.00,,,0.00,weatherlink.com 1.10,2013-01-27 13:13:00,
2013-01-27 08:28:00,23.3,20.0,30.57,NW,309,0.0,0.0,87,0.00,,,0.00,weatherlink.com 1.10,2013-01-27 13:28:00,
2013-01-27 08:43:00,24.2,21.0,30.57,NW,309,0.0,0.0,86,0.00,,,0.00,weatherlink.com 1.10,2013-01-27 13:43:00,
2013-01-27 08:58:00,25.8,21.0,30.58,NW,309,0.0,0.0,82,0.00,,,0.00,weatherlink.com 1.10,2013-01-27 13:58:00,
2013-01-27 09:13:00,27.6,22.0,30.59,NW,309,0.0,2.0,78,0.00,,,0.00,weatherlink.com 1.10,2013-01-27 14:13:00,
2013-01-27 09:28:00,29.0,21.0,30.59,WNW,300,0.0,4.0,72,0.00,,,0.00,weatherlink.com 1.10,2013-01-27 14:28:00,
2013-01-27 09:43:00,29.6,21.0,30.60,WNW,300,1.0,2.0,70,0.00,,,0.00,weatherlink.com 1.10,2013-01-27 14:43:00,
2013-01-27 09:58:00,30.1,20.0,30.60,NW,317,2.0,4.0,67,0.00,,,0.00,weatherlink.com 1.10,2013-01-27 14:58:00,
2013-01-27 10:13:00,30.4,21.0,30.60,NE,46,1.0,3.0,68,0.00,,,0.00,weatherlink.com 1.10,2013-01-27 15:13:00,
2013-01-27 10:28:00,30.4,20.0,30.61,NW,319,1.0,3.0,66,0.00,,,0.00,weatherlink.com 1.10,2013-01-27 15:28:00,
2013-01-27 10:43:00,30.4,21.0,30.61,NW,319,2.0,3.0,67,0.00,,,0.00,weatherlink.com 1.10,2013-01-27 15:43:00,
2013-01-27 10:59:00,31.1,21.0,30.60,West,271,0.0,3.0,67,0.00,,,0.00,weatherlink.com 1.10,2013-01-27 15:59:00,
2013-01-27 11:14:00,31.2,21.0,30.60,NNW,329,2.0,4.0,66,0.00,,,0.00,weatherlink.com 1.10,2013-01-27 16:14:00,
2013-01-27 11:29:00,31.2,21.0,30.59,WNW,295,3.0,3.0,66,0.00,,,0.00,weatherlink.com 1.10,2013-01-27 16:29:00,
2013-01-27 11:44:00,32.0,21.0,30.59,NW,306,1.0,4.0,64,0.00,,,0.00,weatherlink.com 1.10,2013-01-27 16:44:00,
2013-01-27 11:59:00,32.4,21.0,30.58,WNW,298,2.0,4.0,62,0.00,,,0.00,weatherlink.com 1.10,2013-01-27 16:59:00,
2013-01-27 12:14:00,32.3,20.0,30.57,NW,323,0.0,4.0,61,0.00,,,0.00,weatherlink.com 1.10,2013-01-27 17:14:00,
2013-01-27 12:29:00,32.5,20.0,30.57,South,180,2.0,5.0,61,0.00,,,0.00,weatherlink.com 1.10,2013-01-27 17:29:00,
2013-01-27 12:44:00,32.5,20.0,30.55,SSE,159,0.0,4.0,60,0.00,,,0.00,weatherlink.com 1.10,2013-01-27 17:44:00,
2013-01-27 12:59:00,33.5,21.0,30.55,West,264,2.0,3.0,60,0.00,,,0.00,weatherlink.com 1.10,2013-01-27 17:59:00,
2013-01-27 13:14:00,34.0,19.0,30.55,South,184,3.0,5.0,55,0.00,,,0.00,weatherlink.com 1.10,2013-01-27 18:14:00,
2013-01-27 13:29:00,33.7,19.0,30.54,South,173,0.0,5.0,56,0.00,,,0.00,weatherlink.com 1.10,2013-01-27 18:29:00,
2013-01-27 13:44:00,33.8,19.0,30.53,SSW,192,1.0,6.0,56,0.00,,,0.00,weatherlink.com 1.10,2013-01-27 18:44:00,
2013-01-27 13:59:00,34.5,21.0,30.54,SSW,208,4.0,5.0,57,0.00,,,0.00,weatherlink.com 1.10,2013-01-27 18:59:00,
2013-01-27 14:14:00,35.0,20.0,30.53,WSW,257,0.0,4.0,55,0.00,,,0.00,weatherlink.com 1.10,2013-01-27 19:14:00,
2013-01-27 14:29:00,35.1,19.0,30.53,SSW,199,2.0,4.0,53,0.00,,,0.00,weatherlink.com 1.10,2013-01-27 19:29:00,
2013-01-27 14:44:00,35.9,20.0,30.53,South,188,2.0,5.0,52,0.00,,,0.00,weatherlink.com 1.10,2013-01-27 19:44:00,
2013-01-27 14:59:00,35.5,19.0,30.52,South,186,2.0,3.0,52,0.00,,,0.00,weatherlink.com 1.10,2013-01-27 19:59:00,
2013-01-27 15:14:00,35.9,20.0,30.52,SSW,198,1.0,4.0,52,0.00,,,0.00,weatherlink.com 1.10,2013-01-27 20:14:00,
2013-01-27 15:29:00,35.8,20.0,30.52,SSW,193,1.0,4.0,53,0.00,,,0.00,weatherlink.com 1.10,2013-01-27 20:29:00,
2013-01-27 15:44:00,35.7,21.0,30.52,South,182,2.0,3.0,55,0.00,,,0.00,weatherlink.com 1.10,2013-01-27 20:44:00,
2013-01-27 15:59:00,34.6,21.0,30.52,SE,135,0.0,1.0,57,0.00,,,0.00,weatherlink.com 1.10,2013-01-27 20:59:00,
2013-01-27 16:14:00,33.6,20.0,30.51,SE,135,0.0,1.0,58,0.00,,,0.00,weatherlink.com 1.10,2013-01-27 21:14:00,
2013-01-27 16:29:00,33.0,22.0,30.52,SE,135,0.0,2.0,65,0.00,,,0.00,weatherlink.com 1.10,2013-01-27 21:29:00,
2013-01-27 16:44:00,32.6,22.0,30.52,SE,135,0.0,1.0,65,0.00,,,0.00,weatherlink.com 1.10,2013-01-27 21:44:00,
2013-01-27 16:59:00,32.1,21.0,30.52,SE,135,0.0,0.0,65,0.00,,,0.00,weatherlink.com 1.10,2013-01-27 21:59:00,
2013-01-27 17:14:00,31.4,22.0,30.53,SE,135,0.0,0.0,68,0.00,,,0.00,weatherlink.com 1.10,2013-01-27 22:14:00,
2013-01-27 17:29:00,30.7,22.0,30.52,SE,135,0.0,0.0,69,0.00,,,0.00,weatherlink.com 1.10,2013-01-27 22:29:00,
2013-01-27 17:44:00,30.0,22.0,30.53,SE,135,0.0,0.0,71,0.00,,,0.00,weatherlink.com 1.10,2013-01-27 22:44:00,
2013-01-27 17:59:00,29.5,21.0,30.53,SE,135,0.0,0.0,71,0.00,,,0.00,weatherlink.com 1.10,2013-01-27 22:59:00,
2013-01-27 18:14:00,29.0,21.0,30.54,SE,135,0.0,0.0,72,0.00,,,0.00,weatherlink.com 1.10,2013-01-27 23:14:00,
2013-01-27 18:29:00,28.5,21.0,30.53,SE,135,0.0,0.0,73,0.00,,,0.00,weatherlink.com 1.10,2013-01-27 23:29:00,
2013-01-27 18:44:00,28.1,21.0,30.53,SE,135,0.0,0.0,74,0.00,,,0.00,weatherlink.com 1.10,2013-01-27 23:44:00,
2013-01-27 18:59:00,27.9,21.0,30.53,SE,135,0.0,0.0,76,0.00,,,0.00,weatherlink.com 1.10,2013-01-27 23:59:00,
2013-01-27 19:14:00,27.5,21.0,30.54,SE,135,0.0,0.0,76,0.00,,,0.00,weatherlink.com 1.10,2013-01-28 00:14:00,
2013-01-27 19:29:00,27.2,21.0,30.54,SE,135,0.0,0.0,78,0.00,,,0.00,weatherlink.com 1.10,2013-01-28 00:29:00,
2013-01-27 19:44:00,27.1,22.0,30.52,SE,135,0.0,0.0,81,0.00,,,0.00,weatherlink.com 1.10,2013-01-28 00:44:00,
2013-01-27 19:59:00,26.9,22.0,30.53,SE,135,0.0,0.0,82,0.00,,,0.00,weatherlink.com 1.10,2013-01-28 00:59:00,
2013-01-27 20:14:00,26.9,22.0,30.53,SE,135,0.0,0.0,82,0.00,,,0.00,weatherlink.com 1.10,2013-01-28 01:14:00,
2013-01-27 20:29:00,26.7,22.0,30.53,SE,135,0.0,0.0,81,0.00,,,0.00,weatherlink.com 1.10,2013-01-28 01:29:00,
2013-01-27 20:44:00,26.7,22.0,30.52,SE,135,0.0,0.0,81,0.00,,,0.00,weatherlink.com 1.10,2013-01-28 01:44:00,
2013-01-27 20:59:00,26.7,22.0,30.52,SE,135,0.0,0.0,82,0.00,,,0.00,weatherlink.com 1.10,2013-01-28 01:59:00,
2013-01-27 21:14:00,27.0,22.0,30.53,SE,135,0.0,0.0,82,0.00,,,0.00,weatherlink.com 1.10,2013-01-28 02:14:00,
2013-01-27 21:29:00,26.9,22.0,30.53,SE,135,0.0,0.0,82,0.00,,,0.00,weatherlink.com 1.10,2013-01-28 02:29:00,
2013-01-27 21:44:00,26.8,22.0,30.54,SE,135,0.0,0.0,81,0.00,,,0.00,weatherlink.com 1.10,2013-01-28 02:44:00,
2013-01-27 21:59:00,27.0,22.0,30.53,SE,135,0.0,0.0,82,0.00,,,0.00,weatherlink.com 1.10,2013-01-28 02:59:00,
2013-01-27 22:14:00,27.0,23.0,30.52,SE,135,0.0,0.0,84,0.00,,,0.00,weatherlink.com 1.10,2013-01-28 03:14:00,
2013-01-27 22:29:00,26.9,22.0,30.52,SE,135,0.0,0.0,83,0.00,,,0.00,weatherlink.com 1.10,2013-01-28 03:29:00,
2013-01-27 22:44:00,27.0,23.0,30.52,SE,135,0.0,0.0,83,0.00,,,0.00,weatherlink.com 1.10,2013-01-28 03:44:00,
2013-01-27 22:59:00,27.3,23.0,30.51,SE,135,0.0,0.0,83,0.00,,,0.00,weatherlink.com 1.10,2013-01-28 03:59:00,
2013-01-27 23:14:00,27.2,24.0,30.50,South,169,0.0,1.0,86,0.00,,,0.00,weatherlink.com 1.10,2013-01-28 04:14:00,
2013-01-27 23:29:00,27.6,24.0,30.51,South,169,0.0,0.0,86,0.00,,,0.00,weatherlink.com 1.10,2013-01-28 04:29:00,
2013-01-27 23:44:00,28.1,25.0,30.52,South,169,0.0,0.0,86,0.00,,,0.00,weatherlink.com 1.10,2013-01-28 04:44:00,
2013-01-27 23:59:00,28.3,25.0,30.52,South,169,0.0,0.0,87,0.00,,,0.00,weatherlink.com 1.10,2013-01-28 04:59:00,